EA3AGY-13 Weather Reports


time (UTC)temp
C
wind
direction
speed
KPH
gust
KPH
rain 1hr
cm
rain 24hr
cm
rain mn
cm
humidity
%
barometer
mb
20260902115542 24 225 1.6 4.8 0.00 0.00 0.00 27 1023.5
20260902113535 24 303 1.6 6.4 0.00 0.00 0.00 26 1023.6
20260902091505 20 315 1.6 3.2 0.00 0.00 0.00 42 1023.8
20260902081523 19 270 0.0 1.6 0.00 0.00 0.00 44 1023.3
20260902081448 19 270 0.0 1.6 0.00 0.00 0.00 44 1023.3
20260902074441 18 45 0.0 1.6 0.00 0.00 0.00 46 1023.1
20260902073438 17 0 0.0 0.0 0.00 0.00 0.00 47 1023.1
20260902072436 17 45 0.0 0.0 0.00 0.00 0.00 48 1023.1
20260902070431 16 33 0.0 1.6 0.00 0.00 0.00 49 1023.0
20260902063424 15 45 0.0 0.0 0.00 0.00 0.00 53 1022.8
20260902062422 15 45 0.0 1.6 0.00 0.00 0.00 54 1022.7
20260902061420 15 45 0.0 0.0 0.00 0.00 0.00 53 1022.8
20260902060417 14 45 0.0 1.6 0.00 0.00 0.00 53 1022.5
20260902053410 13 90 1.6 3.2 0.00 0.00 0.00 49 1022.4
20260902051408 13 45 0.0 0.0 0.00 0.00 0.00 49 1022.4
20260902050403 13 45 0.0 3.2 0.00 0.00 0.00 50 1022.2
20260902043357 13 45 0.0 0.0 0.00 0.00 0.00 50 1022.1
20260902041351 13 90 1.6 3.2 0.00 0.00 0.00 49 1022.3
20260902035346 13 78 1.6 3.2 0.00 0.00 0.00 50 1022.3
20260902033342 14 90 1.6 1.6 0.00 0.00 0.00 50 1022.2
20260902030335 14 90 1.6 1.6 0.00 0.00 0.00 50 1022.4
20260902024330 14 45 0.0 0.0 0.00 0.00 0.00 51 1022.4
20260902022325 14 90 3.2 3.2 0.00 0.00 0.00 50 1022.5
20260902021325 14 78 3.2 3.2 0.00 0.00 0.00 51 1022.3
20260902020322 14 45 0.0 0.0 0.00 0.00 0.00 53 1022.4
20260902014315 14 90 3.2 3.2 0.00 0.00 0.00 51 1022.5
20260902013313 14 45 0.0 3.2 0.00 0.00 0.00 50 1022.6
20260902012311 14 45 0.0 3.2 0.00 0.00 0.00 49 1022.8
20260902011309 14 45 0.0 3.2 0.00 0.00 0.00 49 1022.6
20260902010306 14 90 1.6 3.2 0.00 0.00 0.00 49 1022.7
20260902005306 14 45 0.0 3.2 0.00 0.00 0.00 50 1022.6
20260902003259 14 90 1.6 3.2 0.00 0.00 0.00 48 1022.8
20260902001255 14 90 1.6 1.6 0.00 0.00 0.00 47 1022.8
20260901233246 14 45 0.0 1.6 0.00 0.00 0.00 45 1022.7
20260901230238 15 90 0.0 1.6 0.00 0.00 0.00 43 1022.7
20260901225235 15 90 1.6 3.2 0.00 0.00 0.00 42 1022.6
20260901222229 16 45 0.0 1.6 0.00 0.00 0.00 44 1022.4
20260901220223 16 67 1.6 1.6 0.00 0.00 0.00 44 1022.3
20260901215222 16 90 1.6 1.6 0.00 0.00 0.00 44 1022.1
20260901213216 16 45 0.0 1.6 0.00 0.00 0.00 45 1022.0
20260901212214 16 45 1.6 1.6 0.00 0.00 0.00 45 1022.1
20260901211211 16 45 0.0 3.2 0.00 0.00 0.00 44 1022.0
20260901210209 16 90 1.6 3.2 0.00 0.00 0.00 44 1022.1
20260901205207 16 45 0.0 1.6 0.00 0.00 0.00 44 1022.0
20260901204204 17 45 0.0 1.6 0.00 0.00 0.00 45 1022.1
20260901203202 17 45 0.0 0.0 0.00 0.00 0.00 44 1022.2
20260901202200 16 45 0.0 1.6 0.00 0.00 0.00 44 1022.1
20260901200155 16 45 0.0 0.0 0.00 0.00 0.00 42 1022.0
20260901195153 16 90 1.6 3.2 0.00 0.00 0.00 42 1022.0
20260901192145 17 78 3.2 3.2 0.00 0.00 0.00 47 1021.8
20260901185140 18 45 0.0 3.2 0.00 0.00 0.00 39 1021.6
20260901184137 18 45 0.0 3.2 0.00 0.00 0.00 38 1021.4
20260901183134 19 45 0.0 3.2 0.00 0.00 0.00 37 1021.3
20260901180127 21 90 0.0 1.6 0.00 0.00 0.00 34 1021.2
20260901174122 22 90 1.6 6.4 0.00 0.00 0.00 29 1021.2
20260901173119 22 101 4.8 4.8 0.00 0.00 0.00 28 1021.2
20260901172117 22 90 3.2 4.8 0.00 0.00 0.00 27 1021.3
20260901171115 21 67 3.2 6.4 0.00 0.00 0.00 25 1021.4
20260901170113 23 90 3.2 6.4 0.00 0.00 0.00 23 1021.5
20260901165110 23 90 3.2 6.4 0.00 0.00 0.00 20 1021.4
20260901163105 25 90 3.2 6.4 0.00 0.00 0.00 15 1021.4
20260901162104 27 90 1.6 4.8 0.00 0.00 0.00 15 1021.5
20260901155057 -25 0 0.0 3.2 0.00 0.00 0.00 22 1021.3
20260901154056 -27 0 1.6 6.4 0.00 0.00 0.00 21 1021.4
20260901153051 -26 225 1.6 1.6 0.00 0.00 0.00 24 1021.4
20260901150047 26 45 0.0 4.8 0.00 0.00 0.00 24 1021.3
20260901144039 25 45 0.0 3.2 0.00 0.00 0.00 28 1021.4
20260901141032 23 90 3.2 4.8 0.00 0.00 0.00 34 1021.7
20260901135027 21 112 4.8 11.3 0.00 0.00 0.00 34 1021.9
20260901130016 23 33 1.6 4.8 0.00 0.00 0.00 35 1021.9
20260901124011 22 0 3.2 6.4 0.00 0.00 0.00 35 1022.1